Welcome to the New NWS' Forecast!
Most changes are behind the scenes, but click here for differences you might notice.
Latest weather observations around

Russellville, Russellville Regional Airport (KRUE)

Using English Units (Switch to International System of Units)
Date/ Time (CDT) Wind (mph) Vis. (mi) Weather Sky Cond. Temp (°F) Rel. Humidity Wind Chill (°F) Heat Index (°F) Pressure Precip. (in)
Air Dwpt 6 hour Altimeter (inHg) Sea level (inHg) 1 hr 3 hr 6 hr
Max Min
Jul 28 07:16 NNW 6 6 Rain and Fog/Mist FEW015 FEW100 SCT120 77 76     96%   79 29.92   0    
Jul 28 06:53 Calm 9 Light Rain FEW017 SCT080 BKN100 76 75     97%   78 29.92 29.89 0   0
Jul 28 06:17 S 5 6 Rain and Fog/Mist FEW022 SCT110 77 75     94%   79 29.9   0    
Jul 28 06:00 Calm 5 Rain and Fog/Mist FEW021 SCT070 BKN090 78 77     96%   81 29.91   0    
Jul 28 05:53 Calm 8 Light Rain FEW024 SCT070 BKN090 79 77     94%   83 29.91 29.88 0    
Jul 28 04:53 NW 6 10 Mostly Cloudy BKN085 79 78     97%   83 29.88 29.85      
Jul 28 03:53 Calm 10 Partly Cloudy SCT070 78 77     96%   81 29.86 29.83      
Jul 28 02:53 Calm 9 Mostly Clear FEW060 78 78     100%   81 29.86 29.83      
Jul 28 01:53 Calm 10 Mostly Clear FEW110 78 78     100%   81 29.86 29.83      
Jul 28 00:53 SE 3 9 Mostly Cloudy BKN110 77 77     100%   79 29.87 29.84     0
Jul 27 23:53 SE 3 10 Cloudy BKN048 BKN075 OVC090 77 77     100%   79 29.88 29.85      
Jul 27 22:53 NE 3 10 Mostly Cloudy BKN049 BKN060 77 76     96%   79 29.88 29.86 0    
Jul 27 22:45 Calm 10 Mostly Cloudy FEW049 BKN060 77 75     94%   79 29.88   0    
Jul 27 21:53 E 6 10 Thunderstorms and Rain BKN049 BKN060 OVC100 83 76     79%   91 29.87 29.85 0 0  
Jul 27 20:53 Calm 10 Cloudy SCT065 BKN075 OVC110 84 76     77%   93 29.87 29.84      
Jul 27 19:53 S 3 10 Mostly Cloudy SCT060 BKN110 88 74     63%   97 29.85 29.82      
Jul 27 18:53 WSW 5 10 Mostly Clear FEW042 FEW050 91 73     56%   100 29.85 29.82      
Jul 27 17:53 N 6 10 Clear CLR 94 76     56%   107 29.86 29.83      
Jul 27 16:53 3 10 Mostly Clear FEW060 95 73     49%   105 29.87 29.84      
Jul 27 15:53 Calm 10 Clear CLR 96 73     48%   106 29.89 29.86      
Jul 27 14:53 3 10 Mostly Clear FEW050 94 74     53%   104 29.92 29.89      
Jul 27 13:53 SW 3 10 Clear CLR 93 73     52%   102 29.94 29.92      
Jul 27 12:53 S 5 10 Clear CLR 92 73     54%   101 29.97 29.94      
Jul 27 11:53 WSW 6 10 Mostly Cloudy SCT090 BKN100 90 75     62%   101 29.99 29.97      
Jul 27 10:53 WSW 5 10 Mostly Cloudy BKN080 87 75     68%   97 30 29.98      
Jul 27 09:53 SE 3 10 Clear CLR 84 75     74%   92 30 29.98      
Jul 27 05:53 Calm 10 Clear CLR 73 72     96%   75 29.98 29.95      
Jul 27 04:53 Calm 10 Clear CLR 73 72     96%   75 29.97 29.94      
Jul 27 03:53 Calm 10 Clear CLR 74 72     94%   75 29.97 29.95      
Jul 27 01:53 Calm 10 Clear CLR 75 73     94%   77 29.99 29.96      
Jul 27 00:53 Calm 10 Clear CLR 76 73     91%   77 30.01 29.98      
Jul 26 23:53 Calm 10 Clear CLR 77 73     88%   79 30 29.97      
Jul 26 22:53 Calm 10 Clear CLR 77 74     90%   79 30 29.97      
Jul 26 21:53 ESE 3 10 Clear CLR 79 74     85%   83 30 29.97      
Jul 26 20:53 Calm 10 Clear CLR 82 75     79%   89 30 29.97      
Jul 26 19:53 S 3 10 Clear CLR 87 73     63%   95 29.99 29.96      
Jul 26 18:53 S 6 10 Clear CLR 91 73     56%   100 29.98 29.95      
Jul 26 17:53 S 7 10 Mostly Clear FEW055 92 73     54%   101 29.99 29.96      
Jul 26 16:53 S 5 10 Clear CLR 94 70     46%   100 29.98 29.96      
Jul 26 15:53 SSW 6 10 Mostly Clear FEW060 94 71     48%   101 30 29.98      
Jul 26 14:53 6 10 Clear CLR 94 70     46%   100 30.02 30      
Jul 26 13:53 SSW 7 10 Mostly Clear FEW049 93 70     47%   99 30.05 30.02      
Jul 26 12:53 SE 5 10 Clear CLR 92 74     56%   102 30.07 30.04      
Jul 26 11:53 3 10 Clear CLR 90 74     59%   99 30.08 30.05      
Jul 26 10:53 ESE 5 10 Clear CLR 88 74     63%   97 30.09 30.06      
Jul 26 09:53 WSW 3 10 Clear CLR 85 73     68%   92 30.09 30.06      
Jul 26 08:53 S 5 10 Clear CLR 82 74     77%   88 30.09 30.07      
Jul 26 07:53 3 10 Clear CLR 78 74     87%   80 30.08 30.06      
Jul 26 06:53 SE 3 8 Clear CLR 74 73     97%   76 30.07 30.05      
Jul 26 05:53 Calm 8 Clear CLR 73 73     100%   75 30.07 30.05      
Jul 26 04:53 Calm 8 Clear CLR 74 73     97%   76 30.06 30.03      
Jul 26 03:53 Calm 9 Clear CLR 75 74     96%   77 30.06 30.04      
Jul 26 02:53 Calm 10 Clear CLR 75 74     96%   77 30.07 30.04      
Jul 26 01:53 Calm 10 Clear CLR 76 74     94%   78 30.07 30.04      
Jul 26 00:53 Calm 10 Clear CLR 78 74     87%   80 30.06 30.03      
Jul 25 23:53 Calm 10 Clear CLR 79 75     88%   83 30.05 30.03      
Jul 25 22:53 Calm 10 Clear CLR 81 76     85%   87 30.04 30.01      
Jul 25 21:53 SSW 3 10 Clear CLR 86 74     67%   94 30.03 30      
Jul 25 20:53 SSW 3 10 Mostly Clear FEW060 86 75     70%   95 30.02 29.99      
Jul 25 19:53 Calm 10 Mostly Clear FEW060 87 76     70%   98 30.02 29.99      
Jul 25 18:53 SE 3 10 Clear CLR 93 75     56%   105 30.01 29.98      
Jul 25 17:53 3 10 Clear CLR 95 72     48%   104 30.02 29.99      
Jul 25 16:53 Calm 10 Clear CLR 95 72     48%   104 30.02 29.99      
Jul 25 15:53 SSW 8 10 Mostly Clear FEW055 95 71     46%   103 30.03 30.01      
Jul 25 14:53 S 5 10 Partly Cloudy SCT050 93 73     52%   102 30.05 30.02      
Jul 25 13:53 5 10 Mostly Clear FEW046 93 72     51%   101 30.06 30.04      
Jul 25 12:53 Calm 10 Clear CLR 92 71     51%   99 30.07 30.05      
Jul 25 11:53 5 10 Clear CLR 91 74     57%   101 30.08 30.05      
Jul 25 09:53 Calm 10 Clear CLR 86 75     70%   95 30.08 30.05      
Jul 25 08:53 Calm 10 Clear CLR 83 75     77%   90 30.08 30.05      
Jul 25 07:53 Calm 10 Clear CLR 78 76     93%   80 30.08 30.05      
Jul 25 06:53 Calm 6 Fog/Mist CLR 74 74     100%   76 30.06 30.03      
Jul 25 05:53 Calm 8 Clear CLR 74 73     97%   76 30.05 30.02      
Jul 25 04:53 Calm 7 Clear CLR 74 74     100%   76 30.02 29.99      
Jul 25 03:53 Calm 10 Clear CLR 75 74     96%   77 30.01 29.99      
Jul 25 02:53 Calm 10 Clear CLR 75 75     100%   77 30 29.97      
Jul 25 01:53 Calm 10 Clear CLR 77 76     96%   79 30 29.97      
Jul 25 00:53 Calm 10 Clear CLR 77 75     94%   79 30 29.97      
Jul 24 23:53 Calm 10 Clear CLR 78 75     90%   80 29.99 29.96      
Jul 24 22:53 Calm 10 Clear CLR 78 75     90%   80 29.97 29.95      
Jul 24 21:53 Calm 10 Mostly Clear FEW070 80 76     87%   85 29.96 29.93      
Jul 24 20:53 Calm 10 Clear CLR 81 76     85%   87 29.93 29.91      
Jul 24 19:53 Calm 10 Clear CLR 85 74     70%   92 29.91 29.88      
Jul 24 18:53 Calm 10 Clear CLR 91 74     57%   101 29.9 29.88      
Jul 24 17:53 Calm 10 Clear CLR 94 66     40%   97 29.91 29.88      
Jul 24 16:53 SE 3 10 Clear CLR 94 65     39%   96 29.91 29.88      
Jul 24 15:53 S 3 10 Clear CLR 93 68     44%   97 29.92 29.9      
Jul 24 14:53 Calm 10 Clear CLR 92 72     52%   100 29.94 29.91      
Jul 24 13:53 SW 5 10 Clear CLR 91 73     56%   100 29.95 29.92      
Jul 24 12:53 SSW 5 10 Clear CLR 89 73     59%   97 29.95 29.93      
Jul 24 11:53 WSW 5 10 Clear CLR 88 74     63%   97 29.96 29.93      
Jul 24 10:53 W 5 10 Clear CLR 86 73     65%   93 29.96 29.94      
Jul 24 09:53 NNW 6 10 Clear CLR 82 73     74%   87 29.96 29.93      
Jul 24 08:53 NNW 8 10 Clear CLR 79 73     82%   82 29.97 29.94      
Jul 24 07:53 NNW 5 10 Clear CLR 76 73     91%   77 29.96 29.93      
Jul 24 06:53 Calm 8 Mostly Clear FEW075 73 72     96%   75 29.94 29.92      
Jul 24 05:53 Calm 10 Clear CLR 73 72     96%   75 29.93 29.91      
Jul 24 04:53 Calm 9 Clear CLR 72 72     100%   74 29.9 29.88      
Jul 24 03:53 Calm 10 Clear CLR 73 72     96%   75 29.89 29.86      
Jul 24 02:53 Calm 9 Clear CLR 73 73     100%   75 29.89 29.87      
Jul 24 01:53 Calm 10 Clear CLR 74 73     97%   76 29.92 29.9      
Jul 24 00:53 Calm 10 Clear CLR 74 74     100%   76 29.92 29.89     0
Jul 23 23:53 Calm 10 Clear CLR 75 73     94%   77 29.93 29.9      
Jul 23 22:53 Calm 10 Clear CLR 75 74     96%   77 29.9 29.88      
Jul 23 21:53 SSE 6 10 Cloudy OVC060 77 72     84%   78 29.9 29.88 0 0  
Jul 23 20:53 WSW 6 10 Light Rain FEW070 SCT100 79 74     85%   83 29.89 29.87 0    
Jul 23 19:53 WNW 3 10 Mostly Cloudy BKN060 BKN085 80 74     82%   85 29.87 29.84      
Jul 23 18:53 S 6 10 Clear CLR 80 75     85%   85 29.81 29.78     0
Jul 23 17:53 WSW 6 10 Clear CLR 81 72     74%   85 29.84 29.81 0    
Jul 23 17:11 N 6 10 Mostly Clear FEW080 82 74     77%   88 29.85   0    
Jul 23 16:53 Calm 9 Light Rain FEW055 SCT090 BKN110 79 73     82%   82 29.85 29.83 0    
Jul 23 16:46 3 3 Rain FEW050 BKN090 BKN110 79 71     77%   82 29.85   0    
Jul 23 16:31 S 5 10 Mostly Cloudy FEW060 SCT085 BKN110 84 67     57%   87 29.86        
Jul 23 15:53 E 8 10 Thunderstorms BKN050 OVC080 89 71     55%   95 29.84 29.81      
Jul 23 15:48 E 7 10 Thunderstorms BKN055 OVC080 91 75     59%   103 29.84        
Jul 23 14:53 N 9 10 Cloudy OVC055 94 75     54%   106 29.83 29.8      
Jul 23 13:53 NNW 9 10 Clear CLR 96 73     48%   106 29.86 29.83      
Jul 23 12:53 3 10 Clear CLR 93 74     54%   103 29.88 29.85      
Jul 23 11:53 Calm 10 Clear CLR 91 75     60%   102 29.9 29.87      
Jul 23 10:53 Calm 10 Clear CLR 89 73     59%   97 29.9 29.88      
Jul 23 09:53 Calm 10 Mostly Clear FEW065 87 73     63%   95 29.92 29.89      
Jul 23 08:53 Calm 10 Mostly Clear FEW100 83 75     77%   90 29.93 29.91      
Jul 23 07:53 NNE 3 10 Clear CLR 81 74     79%   86 29.93 29.9      
Jul 23 06:53 Calm 7 Clear CLR 74 73     97%   76 29.91 29.88      
Jul 23 05:53 Calm 9 Clear CLR 75 73     94%   77 29.9 29.87      
Jul 23 04:53 Calm 8 Clear CLR 75 74     96%   77 29.87 29.84      
Jul 23 02:53 Calm 10 Clear CLR 76 74     94%   78 29.86 29.84      
Jul 23 01:53 Calm 10 Clear CLR 77 74     90%   79 29.87 29.85      
Jul 23 00:53 Calm 10 Clear CLR 79 74     85%   83 29.88 29.85      
Jul 22 23:53 SE 3 10 Clear CLR 80 74     82%   85 29.89 29.86      
Jul 22 20:53 SE 3 10 Clear CLR 83 75     77%   90 29.86 29.84      
Jul 22 19:53 SSE 3 10 Clear CLR 89 76     65%   100 29.84 29.82      
Jul 22 18:53 Calm 10 Clear CLR 94 74     53%   104 29.85 29.82      
Jul 22 17:53 S 5 10 Clear CLR 95 72     48%   104 29.86 29.83      
Jul 22 16:53 3 10 Clear CLR 96 72     46%   105 29.86 29.83      
Jul 22 15:53 SSW 6 10 Clear CLR 96 72     46%   105 29.88 29.85      
Jul 22 14:53 SW 7 10 Clear CLR 96 71     45%   104 29.9 29.87      
Jul 22 13:53 6 10 Clear CLR 94 73     51%   103 29.92 29.89      
Jul 22 12:53 W 5 10 Clear CLR 93 75     56%   105 29.94 29.91      
Jul 22 11:53 WSW 7 10 Clear CLR 92 74     56%   102 29.95 29.92      
Jul 22 10:53 S 5 10 Clear CLR 90 74     59%   99 29.96 29.93      
Jul 22 09:53 3 10 Clear CLR 86 76     72%   96 29.97 29.94      
Jul 22 08:53 Calm 10 Clear CLR 83 75     77%   90 29.97 29.94      
Jul 22 07:53 Calm 7 Clear CLR 80 76     87%   85 29.95 29.93      
Jul 22 06:53 Calm 6 Fog/Mist CLR 76 74     94%   78 29.94 29.91      
Jul 22 05:53 SE 3 6 Fog/Mist CLR 75 74     96%   77 29.93 29.91      
Jul 22 04:53 SSE 3 6 Fog/Mist CLR 75 74     96%   77 29.92 29.89      
Jul 22 03:53 Calm 6 Fog/Mist CLR 76 75     97%   78 29.92 29.89      
Jul 22 02:53 Calm 7 Clear CLR 76 75     97%   78 29.93 29.9      
Jul 22 01:53 Calm 8 Clear CLR 77 75     94%   79 29.94 29.91      
Jul 22 00:53 SE 3 10 Clear CLR 78 76     93%   80 29.95 29.92      
Jul 21 23:53 Calm 10 Clear CLR 79 76     90%   83 29.96 29.93      
Jul 21 22:53 Calm 10 Clear CLR 80 77     90%   86 29.95 29.92      
Jul 21 21:53 Calm 10 Clear CLR 83 77     82%   92 29.94 29.92      
Jul 21 20:53 Calm 10 Clear CLR 83 78     85%   93 29.92 29.89      
Jul 21 19:53 Calm 10 Clear CLR 87 77     72%   99 29.92 29.89      
Jul 21 18:53 ESE 3 10 Clear CLR 93 76     58%   106 29.91 29.89      
Jul 21 17:53 SSE 6 10 Mostly Clear FEW055 95 72     48%   104 29.92 29.89      
Jul 21 16:53 S 6 10 Clear CLR 95 74     51%   106 29.94 29.91      
Jul 21 15:53 7 10 Clear CLR 95 73     49%   105 29.95 29.92      
Jul 21 14:53 SSW 6 10 Clear CLR 95 71     46%   103 29.97 29.94      
Jul 21 10:53 3 10 Clear CLR 90 76     64%   102 30.03 30      
Jul 21 09:53 S 6 10 Clear CLR 87 77     72%   99 30.03 30      
Jul 21 08:53 Calm 7 Clear CLR 84 77     80%   94 30.03 30.01      
Jul 21 07:53 Calm 6 Fog/Mist CLR 81 77     88%   88 30.03 30.01      
Jul 21 07:16 Calm 3 Fog/Mist CLR 78 77     96%   81 30.02        
Jul 21 07:05 Calm 2.5 Fog/Mist CLR 77 76     96%   79 30.02        
Jul 21 06:53 Calm 3 Fog/Mist CLR 76 75     97%   78 30.02 29.99      
Jul 21 06:45 Calm 3 Fog/Mist CLR 75 75     100%   77 30.01        
Jul 21 06:25 Calm 2.5 Fog/Mist CLR 75 75     100%   77 30.02        
Jul 21 05:53 Calm 4 Fog/Mist CLR 75 75     100%   77 30.01 29.98      
Jul 21 04:53 Calm 5 Fog/Mist CLR 76 76     100%   78 30 29.97      
Jul 21 03:53 Calm 7 Clear CLR 78 76     93%   80 30 29.97      
Jul 21 02:53 Calm 5 Fog/Mist CLR 77 77     100%   79 30 29.97      
Jul 21 01:53 Calm 5 Fog/Mist CLR 78 77     96%   81 30 29.97      
Jul 21 00:53 Calm 7 Clear CLR 78 77     96%   81 30.02 29.99     0
Jul 20 23:53 Calm 9 Clear CLR 79 78     97%   83 30.02 29.99      
Jul 20 22:53 Calm 8 Clear CLR 79 78     97%   83 30.02 29.99      
Jul 20 21:53 Calm 10 Clear CLR 81 78     91%   89 30.01 29.98   0  
Jul 20 20:53 Calm 10 Clear CLR 81 79     94%   89 30 29.97      
Jul 20 19:53 3 10 Mostly Clear FEW060 85 77     77%   95 30 29.97 0    
Jul 20 18:53 SW 3 10 Mostly Cloudy SCT050 SCT070 BKN090 93 76     58%   106 29.99 29.97      
Jul 20 17:53 SW 6 10 Mostly Clear FEW055 94 76     56%   107 29.99 29.97      
Jul 20 16:53 S 5 10 Mostly Clear FEW055 94 73     51%   103 30.01 29.98      
Jul 20 15:53 3 10 Mostly Clear FEW060 95 75     53%   107 30.03 30.01      
Jul 20 14:53 5 10 Cloudy OVC045 95 75     53%   107 30.04 30.01      
Jul 20 13:53 S 3 10 Mostly Clear FEW043 93 76     58%   106 30.06 30.04      
Jul 20 12:53 Calm 10 Clear CLR 93 75     56%   105 30.08 30.06      
Jul 20 11:53 SW 7 10 Partly Cloudy SCT034 91 77     64%   105 30.1 30.08      
Jul 20 10:53 Calm 10 Clear CLR 89 76     65%   100 30.11 30.09      
Jul 20 09:53 SSW 3 10 Clear CLR 87 76     70%   98 30.12 30.09      
Jul 20 08:53 Calm 10 Clear CLR 83 76     79%   91 30.12 30.09      
Jul 20 07:53 Calm 10 Clear CLR 81 76     85%   87 30.11 30.09      
Jul 20 06:53 Calm 7 Clear CLR 75 75     100%   77 30.11 30.08      
Jul 20 04:53 Calm 9 Clear CLR 75 75     100%   77 30.08 30.06      
Jul 20 03:53 Calm 10 Clear CLR 75 75     100%   77 30.07 30.05      
Jul 20 02:53 Calm 10 Clear CLR 76 75     97%   78 30.08 30.06      
Jul 20 01:53 Calm 10 Clear CLR 77 75     94%   79 30.08 30.06      
Jul 20 00:53 Calm 10 Clear CLR 77 76     96%   79 30.1 30.07      
Jul 19 23:53 Calm 10 Clear CLR 78 76     93%   80 30.08 30.06      
Jul 19 22:53 Calm 10 Clear CLR 78 76     93%   80 30.08 30.05      
Jul 19 20:53 Calm 10 Clear CLR 81 78     91%   89 30.05 30.02      
Jul 19 19:53 Calm 10 Clear CLR 87 77     72%   99 30.05 30.02      
Jul 19 18:53 S 6 10 Clear CLR 91 74     57%   101 30.05 30.02      
Jul 19 17:53 ESE 5 10 Clear   93 69     46%   98 30.05 30.03      
Jul 19 16:53 ESE 6 10 Clear CLR 94 70     46%   100 30.06 30.03      
Jul 19 15:53 ESE 3 10 Clear CLR 94 69     45%   99 30.08 30.05      
Jul 19 14:53 Calm 10 Mostly Clear FEW070 93 69     46%   98 30.1 30.07      
Jul 19 13:53 W 5 10 Mostly Cloudy BKN050 94 71     48%   101 30.12 30.09      
Jul 19 12:53 3 10 Partly Cloudy SCT041 SCT050 92 74     56%   102 30.13 30.11      
Jul 19 11:53 ESE 3 10 Clear CLR 91 75     60%   102 30.14 30.12      
Jul 19 10:53 Calm 10 Clear CLR 88 75     66%   98 30.15 30.12      
Jul 19 09:53 Calm 10 Clear CLR 85 74     70%   92 30.15 30.12      
Jul 19 05:53 Calm 7 Mostly Cloudy BKN060 73 72     96%   75 30.12 30.09      
Jul 19 04:53 Calm 8 Mostly Clear FEW055 72 71     97%   73 30.1 30.08      
Jul 19 03:53 Calm 8 Clear CLR 73 72     96%   75 30.09 30.06      
Jul 19 02:53 Calm 9 Clear CLR 73 72     96%   75 30.09 30.07      
Jul 19 01:53 Calm 10 Clear CLR 74 71     91%   75 30.1 30.07      
Jul 19 00:53 Calm 10 Clear CLR 74 72     94%   75 30.09 30.06      
Jul 18 22:53 Calm 10 Clear CLR 76 73     91%   77 30.07 30.05      
Jul 18 21:53 Calm 10 Clear CLR 77 72     84%   78 30.06 30.04      
Jul 18 20:53 Calm 10 Clear CLR 79 74     85%   83 30.04 30.01      
Jul 18 19:53 NE 3 10 Clear CLR 84 74     72%   91 30.03 30.01      
Jul 18 18:53 NE 3 10 Clear CLR 90 71     54%   96 30.03 30      
Jul 18 17:53 Calm 10 Clear CLR 92 69     47%   97 30.02 30      
Jul 18 16:53 E 6 10 Mostly Clear FEW050 92 70     49%   98 30.03 30      
Jul 18 15:53 Calm 10 Mostly Clear FEW050 91 69     49%   96 30.04 30.01      
Jul 18 14:53 Calm 10 Partly Cloudy SCT050 91 69     49%   96 30.05 30.03      
Jul 18 13:53 5 10 Mostly Clear FEW047 91 69     49%   96 30.06 30.03      
Jul 18 12:53 W 3 10 Mostly Clear FEW046 90 68     49%   94 30.07 30.05      
Jul 18 11:53 3 10 Mostly Clear FEW044 88 70     55%   93 30.09 30.06      
Jul 18 10:53 Calm 10 Clear CLR 86 71     61%   92 30.08 30.06      
Jul 18 09:53 Calm 10 Clear CLR 82 71     69%   86 30.08 30.06      
Jul 18 08:53 Calm 10 Clear CLR 79 73     82%   82 30.08 30.05      
Jul 18 05:53 Calm 5 Fog/Mist CLR 69 69     100%     30.04 30.02      
Jul 18 03:53 Calm 5 Fog/Mist CLR 71 70     96%   72 30.02 29.99      
Jul 18 02:53 Calm 6 Fog/Mist CLR 71 71     100%   73 30.01 29.98      
Jul 18 01:53 Calm 7 Clear CLR 72 71     97%   73 30.01 29.98      
Jul 18 00:53 Calm 10 Clear CLR 73 72     96%   75 30.01 29.98      
Jul 17 21:53 Calm 10 Clear CLR 75 73     94%   77 29.96 29.93      
Jul 17 20:53 Calm 10 Clear CLR 78 74     87%   80 29.94 29.92      
Jul 17 19:53 Calm 10 Clear CLR 83 75     77%   90 29.95 29.92      
Jul 17 17:53 ESE 5 10 Clear CLR 90 68     49%   94 29.95 29.92      
Jul 17 16:53 5 10 Mostly Clear FEW055 91 68     47%   95 29.96 29.94      
Jul 17 15:53 3 10 Mostly Clear FEW060 91 66     44%   94 29.97 29.94      
Jul 17 14:53 NE 8 10 Clear CLR 91 66     44%   94 29.97 29.95      
Jul 17 13:53 3 10 Partly Cloudy SCT055 91 67     45%   94 29.99 29.96      
Jul 17 12:53 3 10 Mostly Clear FEW047 90 67     47%   93 30 29.98      
Jul 17 11:53 3 10 Mostly Clear FEW044 FEW055 87 71     59%   93 30.01 29.98      
Jul 17 10:53 SSW 6 10 Mostly Clear FEW030 85 74     70%   92 30.01 29.98      
Jul 17 09:53 W 3 10 Clear CLR 84 74     72%   91 30.01 29.98      
Jul 17 08:53 Calm 9 Clear CLR 79 74     85%   83 30.01 29.98      
Jul 17 07:53 Calm 5 Fog/Mist SCT004 75 74     96%   77 30.01 29.98      
Jul 17 07:33 Calm 3 Fog/Mist OVC004 74 74     100%   76 30        
Jul 17 07:19 Calm 2.5 Fog/Mist OVC004 73 73     100%   75 30        
Jul 17 07:05 Calm 1.25 Fog/Mist BKN004 72 72     100%   74 30        
Jul 17 06:53 Calm 1.25 Fog/Mist FEW001 SCT005 72 72     100%   74 30 29.97      
Jul 17 06:48 Calm 1.75 Fog/Mist FEW002 72 72     100%   73 30        
Jul 17 06:36 Calm 3 Fog/Mist SCT002 71 71     100%   73 29.99        
Jul 17 06:19 Calm 2.5 Fog/Mist BKN002 71 71     100%   73 29.99        
Jul 17 06:12 Calm 5 Fog/Mist SCT002 72 72     100%   74 29.99        
Jul 17 05:53 Calm 6 Fog/Mist CLR 73 72     96%   75 29.99 29.96      
Jul 17 04:53 Calm 5 Fog/Mist FEW046 72 71     97%   73 29.97 29.94      
Jul 17 03:53 Calm 4 Fog/Mist CLR 72 72     100%   74 29.96 29.93      
Jul 17 02:53 Calm 6 Fog/Mist CLR 73 72     96%   75 29.96 29.93      
Jul 17 01:53 Calm 5 Fog/Mist CLR 73 73     100%   75 29.97 29.94      
Jul 17 00:53 E 3 7 Clear CLR 74 74     100%   76 29.98 29.95      
Jul 16 23:53 Calm 9 Clear CLR 75 74     96%   77 29.95 29.93      
Jul 16 22:53 S 3 10 Clear CLR 76 75     97%   78 29.96 29.93      
Jul 16 21:53 Calm 10 Clear CLR 77 75     94%   79 29.96 29.93      
Jul 16 20:53 Calm 10 Clear CLR 78 76     93%   80 29.93 29.9      
Jul 16 19:53 Calm 10 Clear CLR 81 76     85%   87 29.92 29.9      
Jul 16 18:53 Calm 10 Clear CLR 88 73     61%   96 29.92 29.9      
Jul 16 17:53 ESE 3 10 Clear CLR 89 70     53%   94 29.93 29.9      
Jul 16 16:53 E 3 10 Mostly Clear FEW070 91 70     50%   97 29.94 29.91      
Jul 16 15:53 5 10 Clear CLR 90 70     52%   95 29.95 29.93      
Jul 16 14:53 SSE 6 10 Clear CLR 89 69     52%   94 29.97 29.95      
Jul 16 13:53 S 3 10 Clear CLR 89 70     53%   94 29.99 29.96      
Jul 16 12:53 3 10 Clear CLR 87 70     57%   92 30 29.98      
Jul 16 11:53 ENE 5 10 Mostly Clear FEW029 87 73     63%   95 30.03 30      
Jul 16 10:53 E 5 10 Clear CLR 85 75     72%   93 30.04 30.01      
Jul 16 09:53 E 5 10 Clear CLR 82 75     79%   89 30.04 30.02      
Jul 16 08:53 Calm 10 Clear CLR 79 75     88%   83 30.04 30.01      
Jul 16 07:53 Calm 8 Clear CLR 77 74     90%   79 30.04 30.01      
Jul 16 06:53 Calm 4 Fog/Mist CLR 73 73     100%   75 30.03 30.01      
Jul 16 06:38 Calm 3 Fog/Mist CLR 73 72     96%   75 30.02        
Jul 16 06:17 Calm 2.5 Fog/Mist CLR 72 72     100%   74 30.02        
Jul 16 06:06 Calm 1.75 Fog/Mist CLR 72 72     100%   74 30.02        
Jul 16 05:53 Calm 4 Fog/Mist CLR 72 72     100%   74 30.02 29.99      
Jul 16 04:53 Calm 5 Fog/Mist CLR 74 73     97%   76 30.01 29.98      
Jul 16 03:53 Calm 8 Clear CLR 74 73     97%   76 30 29.98      
Jul 16 02:53 Calm 7 Clear CLR 74 74     100%   76 29.99 29.97      
Jul 16 01:53 Calm 9 Clear CLR 74 74     100%   76 30.01 29.98      
Jul 16 00:53 Calm 10 Clear CLR 75 74     96%   77 30.02 29.99      
Jul 15 23:53 Calm 10 Clear CLR 76 75     97%   78 30.02 30      
Jul 15 22:53 Calm 10 Mostly Clear FEW039 FEW065 77 76     96%   79 30.03 30      
Jul 15 21:53 Calm 10 Mostly Clear FEW047 78 76     93%   80 30.02 29.99      
Jul 15 20:53 Calm 10 Clear CLR 79 77     94%   83 29.99 29.97      
Jul 15 19:53 Calm 10 Clear CLR 83 76     79%   91 29.98 29.96      
Jul 15 18:53 5 10 Clear CLR 87 75     68%   97 29.98 29.96 0   0
Jul 15 17:53 E 7 10 Mostly Cloudy SCT042 BKN050 BKN060 88 73     61%   96 29.98 29.95      
Jul 15 16:53 E 6 10 Clear CLR 91 73     56%   100 29.99 29.96      
Jul 15 15:53 3 10 Clear CLR 91 71     52%   98 30 29.98   0  
Jul 15 14:53 5 10 Partly Cloudy FEW037 SCT065 90 76     64%   102 30.03 30      
Jul 15 13:53 SE 3 10 Mostly Cloudy BKN060 86 74     67%   94 30.06 30.03 0    
Jul 15 12:53 SSE 3 10 Partly Cloudy FEW041 SCT048 88 74     63%   97 30.08 30.05      
Jul 15 12:28 W 3 10 Cloudy SCT028 BKN037 OVC055 86 74     67%   94 30.08        
Jul 15 12:13 WNW 7 10 Cloudy BKN028 BKN042 OVC060 85 75     72%   93 30.09        
Jul 15 11:53 3 10 Mostly Cloudy FEW030 BKN041 BKN050 87 75     68%   97 30.09 30.06      
Jul 15 10:53 3 10 Mostly Clear FEW026 86 76     72%   96 30.1 30.07      
Jul 15 09:53 Calm 10 Clear CLR 82 75     79%   89 30.1 30.08      
Jul 15 08:53 Calm 10 Clear CLR 80 74     82%   85 30.11 30.09      
Jul 15 07:53 Calm 10 Clear CLR 77 74     90%   79 30.11 30.09      
Jul 15 06:53 Calm 9 Mostly Clear FEW044 74 73     97%   76 30.1 30.08      
Jul 15 05:53 Calm 9 Mostly Clear FEW120 73 73     100%   75 30.09 30.07      
Jul 15 04:59 Calm 3 Fog/Mist CLR 73 73     100%   75 30.09        
Jul 15 04:53 Calm 1.75 Fog/Mist CLR 73 73     100%   75 30.08 30.06      
Jul 15 04:50 Calm 1.75 Fog/Mist CLR 72 72     100%   73 30.08        
Jul 15 03:53 Calm 4 Fog/Mist FEW095 73 73     100%   75 30.08 30.06      
Jul 15 02:53 Calm 7 Mostly Clear FEW080 74 73     97%   76 30.09 30.06      
Jul 15 01:53 Calm 10 Cloudy OVC085 76 74     94%   78 30.09 30.06      
Jul 15 00:53 Calm 8 Mostly Clear FEW010 FEW085 75 74     96%   77 30.1 30.07      
Jul 15 00:42 Calm 7 Mostly Cloudy SCT010 BKN090 75 74     96%   77 30.1        
Jul 15 00:33 Calm 10 Mostly Cloudy BKN010 BKN095 75 75     100%   77 30.1        
Jul 15 00:23 Calm 10 Cloudy BKN009 OVC095 75 75     100%   77 30.09        
Jul 15 00:11 Calm 10 Mostly Cloudy BKN010 BKN090 76 75     97%   78 30.09        
Jul 14 23:53 E 3 9 Clear CLR 75 75     100%   77 30.09 30.06      
Jul 14 22:53 Calm 6 Fog/Mist CLR 75 75     100%   77 30.08 30.05      
Jul 14 21:53 Calm 10 Mostly Clear FEW110 77 76     96%   79 30.08 30.05      
Jul 14 20:53 Calm 10 Clear CLR 77 76     96%   79 30.07 30.05      
Jul 14 19:53 Calm 10 Clear CLR 78 77     96%   81 30.07 30.05      
Jul 14 18:53 Calm 10 Clear CLR 80 74     82%   85 30.07 30.04     0
Jul 14 17:53 Calm 10 Clear CLR 80 75     85%   85 30.08 30.06      
Jul 14 16:53 Calm 10 Mostly Clear FEW047 FEW100 80 74     82%   85 30.09 30.07      
Jul 14 15:53 Calm 10 Mostly Cloudy FEW033 BKN110 79 74     85%   83 30.1 30.08 0 0  
Jul 14 14:53 S 3 10 Clear CLR 80 73     79%   84 30.14 30.11 0    
Jul 14 14:33 WNW 7 10 Mostly Clear FEW100 80 75     85%   85 30.12   0    
Jul 14 14:07 NNE 6 4 Rain and Fog/Mist FEW048 BKN085 OVC100 76 72     88%   77 30.11   0    
Jul 14 14:00 N 10 2.5 Rain and Fog/Mist SCT048 BKN075 OVC090 75 72     90%   76 30.1   0    
Jul 14 13:53   1.75 Heavy Rain and Fog/Mist FEW036 BKN048 OVC080 75 72     90%   76 30.1 30.07 0    
Jul 14 13:42   1.75 Heavy Rain SCT038 BKN048 OVC085 77 71     82%   78 30.11   0    
Jul 14 13:17   10 Partly Cloudy SCT037 SCT049 SCT060 91 76     61%   103 30.09        
Jul 14 12:53 W 6 10 Clear CLR 91 74     57%   101 30.1 30.08      
Jul 14 11:53 W 7 10 Clear CLR 89 74     61%   98 30.11 30.08      
Jul 14 10:53 W 8 10 Clear CLR 88 74     63%   97 30.12 30.09      
Jul 14 10:40 W 5 10 Clear CLR 86 73     65%   93 30.12        
Jul 14 09:53 Calm 10 Partly Cloudy SCT045 85 73     68%   92 30.13 30.1      
Jul 14 08:53 Calm 10 Clear CLR 80 73     79%   84 30.13 30.1      
Jul 14 07:53 ESE 3 10 Mostly Clear FEW090 79 73     82%   82 30.11 30.09      
Jul 14 06:53 Calm 10 Clear CLR 75 73     94%   77 30.1 30.08      
Jul 14 05:53 Calm 9 Mostly Cloudy BKN110 73 72     96%   75 30.09 30.07      
Jul 14 04:53 Calm 9 Clear CLR 72 72     100%   74 30.09 30.06      
Jul 14 03:53 Calm 10 Clear CLR 74 73     97%   76 30.09 30.06      
Jul 14 02:53 Calm 10 Clear CLR 74 73     97%   76 30.1 30.07      
Jul 14 01:53 Calm 10 Clear CLR 75 73     94%   77 30.09 30.07      
Jul 14 00:53 Calm 10 Clear CLR 77 73     88%   79 30.09 30.07      
Jul 13 23:53 Calm 10 Clear CLR 76 74     94%   78 30.1 30.08      
Jul 13 22:53 Calm 10 Clear CLR 77 75     94%   79 30.1 30.07      
Jul 13 21:53 Calm 10 Clear CLR 79 75     88%   83 30.07 30.04      
Jul 13 20:53 SSW 3 10 Clear CLR 83 74     74%   89 30.04 30.01      
Jul 13 19:53 SSW 7 10 Mostly Clear FEW050 86 74     67%   94 30.03 30      
Jul 13 18:53 S 5 10 Clear CLR 90 74     59%   99 30.03 30      
Jul 13 17:53 SE 5 10 Clear CLR 92 73     54%   101 30.03 30      
Jul 13 16:53 E 5 10 Partly Cloudy SCT048 SCT100 92 73     54%   101 30.05 30.02      
Jul 13 15:53 Calm 10 Mostly Clear FEW050 93 71     49%   100 30.06 30.03      
Jul 13 14:53 Calm 10 Clear CLR 93 71     49%   100 30.07 30.04      
Jul 13 13:53 S 6 10 Clear CLR 92 72     52%   100 30.08 30.06      
Jul 13 12:53 SW 6 10 Clear CLR 90 74     59%   99 30.1 30.07      
Jul 13 11:53 SSW 5 10 Clear CLR 89 75     63%   99 30.12 30.09      
Jul 13 10:53 Calm 10 Clear CLR 87 74     65%   95 30.13 30.11      
Jul 13 07:53 Calm 10 Clear CLR 79 75     88%   83 30.12 30.09      
Jul 13 06:53 Calm 9 Clear CLR 76 74     94%   78 30.11 30.09      
Jul 13 05:53 ESE 3 9 Clear CLR 74 74     100%   76 30.09 30.07      
Jul 13 04:53 Calm 8 Clear CLR 75 74     96%   77 30.09 30.06      
Jul 13 03:53 Calm 7 Clear CLR 75 75     100%   77 30.07 30.04      
Jul 13 02:53 Calm 7 Clear CLR 76 75     97%   78 30.05 30.03      
Jul 13 01:53 Calm 6 Fog/Mist CLR 76 76     100%   78 30.05 30.02      
Jul 13 00:53 Calm 9 Clear CLR 77 76     96%   79 30.05 30.02      
Jul 12 23:53 Calm 9 Clear CLR 78 77     96%   81 30.04 30.02      
Jul 12 22:53 Calm 10 Clear CLR 79 77     94%   83 30.03 30.01      
Jul 12 21:53 Calm 10 Clear CLR 80 78     94%   86 30.03 30      
Jul 12 20:53 Calm 10 Mostly Clear FEW100 81 78     91%   89 30.02 29.99      
Jul 12 19:53 Calm 10 Clear CLR 85 77     77%   95 30.02 29.99      
Jul 12 18:53 SE 3 10 Mostly Clear FEW055 90 76     64%   102 30 29.97      
Jul 12 17:53 S 6 10 Mostly Cloudy FEW047 FEW065 BKN090 92 74     56%   102 29.99 29.97      
Jul 12 15:53 SSE 6 10 Mostly Cloudy BKN046 BKN060 BKN090 93 73     52%   102 30.01 29.99      
Jul 12 14:53 SSW 5 10 Clear CLR 91 73     56%   100 30.02 30      
Jul 12 12:53 WSW 6 10 Clear   91 74     57%   101 30.05 30.02      
Jul 10 14:53 SW 9 10 Mostly Clear FEW045 90 70     52%   95 29.99 29.96      
Jul 10 13:53 SSW 7 10 Mostly Clear FEW041 89 71     55%   95 30 29.98      
Jul 10 11:53 3 10 Mostly Clear FEW027 86 73     65%   93 30.03 30.01      
Jul 10 10:53 S 8 10 Clear CLR 84 73     70%   90 30.04 30.01      
Jul 10 09:53 S 5 10 Clear CLR 81 71     72%   85 30.05 30.02      
Jul 10 07:53 Calm 10 Clear CLR 75 71     88%   76 30.03 30.01      
Jul 10 05:53 Calm 10 Clear CLR 68 68     100%     30 29.98      
Jul 10 04:53 Calm 10 Clear CLR 69 68     96%     29.99 29.97      
Jul 10 03:53 Calm 10 Clear CLR 69 69     100%     30 29.97      
Jul 10 02:53 Calm 10 Clear CLR 70 69     97%     30 29.97      
Jul 10 01:53 Calm 10 Clear CLR 71 70     96%   72 30.01 29.98      
Jul 10 00:53 Calm 10 Clear CLR 72 70     93%   73 30.02 29.99      
Jul 09 23:53 Calm 10 Clear CLR 73 71     94%   74 30.03 30      
Jul 09 22:53 ESE 3 10 Clear CLR 76 71     85%   77 30.02 30      
Jul 09 21:53 Calm 10 Clear CLR 76 72     88%   77 30.02 29.99      
Jul 09 20:53 Calm 10 Clear CLR 78 73     85%   80 30 29.98      
Jul 09 19:53 SE 3 10 Clear CLR 85 70     61%   89 29.99 29.97      
Jul 09 18:53 SE 5 10 Clear CLR 88 69     54%   92 29.99 29.97      
Jul 09 17:53 5 10 Clear CLR 89 67     48%   92 30 29.97      
Jul 09 15:53 SSW 7 10 Clear CLR 90 67     47%   93 30.04 30.01      
Jul 09 14:53 SW 6 10 Clear CLR 90 65     44%   92 30.06 30.03      
Jul 09 13:53 S 6 10 Clear CLR 90 68     49%   94 30.08 30.05      
Jul 09 12:53 SSE 8 10 Mostly Clear FEW045 89 67     48%   92 30.08 30.06      
Jul 09 11:53 SSE 6 10 Mostly Clear FEW026 86 73     65%   93 30.1 30.07      
Jul 09 10:04 SSW 3 10 Mostly Clear FEW004 79 76     90%   83 30.1        
Jul 09 09:53 SSW 5 10 Mostly Cloudy BKN003 78 75     90%   80 30.1 30.08      
Jul 09 09:25 Calm 5 Fog/Mist OVC002 74 74     100%   76 30.1        
Jul 09 09:18 Calm 2.5 Fog/Mist OVC002 74 74     100%   76 30.1        
Jul 09 09:08 Calm 1.5 Fog/Mist OVC002 74 74     100%   76 30.1        
Jul 09 08:53 Calm 0.5 Fog VV002 74 74     100%   76 30.1 30.08      
Jul 09 07:53 Calm 0.25 Fog VV002 73 73     100%   75 30.09 30.06      
Jul 09 06:53 Calm 0.25 Fog VV002 72 72     100%   74 30.08 30.05      
Jul 09 05:53 Calm 0.25 Fog VV002 72 72     100%   74 30.08 30.05      
Jul 09 05:09 Calm 0.75 Fog/Mist VV002 70 70     100%     30.07        
Jul 09 05:05 Calm 1.75 Fog/Mist FEW001 70 70     100%     30.07        
Jul 09 04:53 Calm 6 Fog/Mist CLR 70 70     100%     30.07 30.04      
Jul 09 04:50 Calm 6 Fog/Mist CLR 72 70     94%   73 30.07        
Jul 09 04:41 Calm 2 Fog/Mist FEW005 71 71     100%   73 30.07        
Jul 09 04:32 Calm 1.75 Fog/Mist CLR 71 71     100%   73 30.07        
Jul 09 04:23 Calm 4 Fog/Mist CLR 71 71     100%   73 30.07        
Jul 09 04:15 Calm 2 Fog/Mist CLR 71 71     100%   73 30.07        
Jul 09 04:10 Calm 0.75 Fog/Mist CLR 71 71     100%   73 30.07        
Jul 09 04:00 Calm 1.5 Fog/Mist CLR 71 71     100%   73 30.07        
Jul 09 03:53 Calm 4 Fog/Mist CLR 71 71     100%   73 30.07 30.04      
Jul 09 03:31 Calm 7 Clear CLR 71 71     100%   73 30.06        
Jul 09 03:24 Calm 2 Fog/Mist CLR 72 72     100%   74 30.07        
Jul 09 03:19 Calm 0.75 Fog/Mist CLR 72 72     100%   74 30.07        
Jul 09 03:05 Calm 1.5 Fog/Mist CLR 72 72     100%   74 30.07        
Jul 09 02:53 Calm 3 Fog/Mist CLR 72 72     100%   74 30.06 30.04      
Jul 09 02:43 Calm 2.5 Fog/Mist CLR 73 72     96%   75 30.06        
Jul 09 00:53 Calm 10 Clear CLR 74 74     100%   76 30.09 30.06      
Jul 08 23:53 Calm 10 Mostly Clear FEW040 75 74     96%   77 30.08 30.06      
Jul 08 22:53 Calm 10 Mostly Cloudy BKN036 75 75     100%   77 30.07 30.04      
Jul 08 21:53 Calm 10 Clear CLR 76 75     97%   78 30.06 30.04      
Jul 08 20:53 Calm 10 Clear CLR 78 76     93%   80 30.04 30.01      
Jul 08 19:53 Calm 10 Clear CLR 83 76     79%   91 30.01 29.98      
Jul 08 18:53 Calm 10 Clear CLR 86 75     70%   95 30 29.98      
Jul 08 17:53 Calm 10 Clear CLR 85 72     65%   91 30.01 29.99      
Jul 08 15:53 ESE 5 10 Clear CLR 87 71     59%   93 30.03 30      
Jul 08 14:53 Calm 10 Clear CLR 86 70     59%   91 30.05 30.02      
Jul 08 13:53 WNW 3 10 Clear CLR 84 71     65%   89 30.08 30.05      
Jul 08 12:53 W 13 10 Clear CLR 84 71     65%   89 30.11 30.08      
Jul 08 11:53 WNW 6 9 Clear CLR 82 71     69%   86 30.11 30.09      
Jul 08 10:53 WNW 8 10 Clear CLR 80 71     74%   84 30.09 30.07      
Jul 08 09:53 Calm 10 Clear CLR 77 70     79%   78 30.08 30.05      
Jul 08 08:53 Calm 10 Clear CLR 72 70     93%   73 30.09 30.07      
Jul 08 07:53 ESE 3 10 Mostly Clear FEW110 69 69     100%     30.08 30.05      
Jul 08 06:53 Calm 10 Clear CLR 69 68     96%     30.09 30.06 0   1
Jul 08 05:36 SW 3 7 Thunderstorms and Rain SCT110 68 68     100%     30.07   0    
Jul 08 05:04 SW 6 7 Rain FEW045 BKN095 BKN120 69 67     93%     30.06   0    
Jul 08 04:53 5 6 Thunderstorms and Rain and Fog/Mist   69 67     93%     30.05 30.03 1    
Jul 08 04:51 E 5 6 Thunderstorms and Rain and Fog/Mist   70 66     88%     30.05   1    
Jul 08 04:39 NNW 10 2 Thunderstorms and Heavy Rain and Fog/Mist   70 68     93%     30.07   0    
Jul 08 04:30 NW 11   Thunderstorms and Heavy Rain   70 69     97%     30.09   0    
Jul 08 04:08 N 14 1.25 Thunderstorms and Heavy Rain and Fog/Mist FEW011 BKN018 OVC046 70 70     100%     30.08   0    
Jul 08 03:59 N 15 1.75 Thunderstorms and Heavy Rain and Fog/Mist SCT018 BKN033 OVC055 71 70     96%   72 30.07   0    
Jul 08 03:53   6 Thunderstorms and Rain and Fog/Mist FEW020 BKN043 OVC060 73 70     90%   74     0 0  
Jul 08 03:41   10 Thunderstorms SCT033 SCT042 OVC065 79 71     77%   82 30.03        
Jul 08 03:29   10 Cloudy BKN065 OVC080 79 71     77%   82 30.01        
Jul 08 03:14 ESE 3 10 Mostly Cloudy BKN075 79 72     79%   82 29.98        
Jul 08 02:53 ESE 5 10 Clear CLR 78 72     82%   79 29.97 29.94      
Jul 08 01:53 3 10 Clear CLR 78 75     90%   80 29.98 29.95      
Jul 08 00:53 Calm 10 Clear CLR 76 75     97%   78 29.98 29.96      
Jul 07 23:53 N 3 10 Partly Cloudy SCT110 78 75     90%   80 30 29.97      
Jul 07 22:53 Calm 10 Clear CLR 78 75     90%   80 29.99 29.96      
Jul 07 21:53 Calm 10 Clear CLR 79 76     90%   83 29.98 29.95      
Jul 07 20:53 Calm 10 Clear CLR 82 75     79%   89 29.98 29.96      
Jul 07 19:53 Calm 10 Clear CLR 87 75     68%   97 29.97 29.95      
Jul 07 17:53 WNW 7 10 Clear CLR 93 68     44%   97 29.96 29.94      
Jul 07 15:53 NW 9 10 Clear CLR 94 70     46%   100 29.99 29.97      
Jul 07 14:53 W 10 10 Mostly Clear FEW049 92 73     54%   101 30.02 29.99      
Jul 07 13:53 SW 6 10 Mostly Clear FEW045 91 74     57%   101 30.03 30.01      
Jul 07 12:53 WNW 8 10 Clear CLR 91 73     56%   100 30.06 30.03      
Jul 07 11:53 NNW 10 10 Clear CLR 90 72     56%   97 30.07 30.04      
Jul 07 10:53 3 10 Clear CLR 86 74     67%   94 30.08 30.06      
Jul 07 09:53 Calm 10 Clear CLR 83 72     70%   88 30.09 30.06      
Jul 07 07:53 Calm 10 Clear CLR 75 71     88%   76 30.08 30.05      
Jul 07 06:53 Calm 10 Clear CLR 72 71     97%   73 30.07 30.04      
Jul 07 05:53 Calm 8 Clear CLR 70 70     100%     30.06 30.04      
Jul 07 04:53 Calm 10 Clear CLR 71 71     100%   73 30.05 30.03      
Jul 07 03:53 Calm 10 Clear CLR 72 71     97%   73 30.05 30.02      
Jul 07 02:53 Calm 10 Clear CLR 72 71     97%   73 30.04 30.01      
Jul 07 01:53 Calm 10 Clear CLR 73 72     96%   75 30.05 30.02      
Jul 07 00:53 Calm 10 Clear CLR 73 72     96%   75 30.05 30.03      
Jul 06 23:53 Calm 10 Clear CLR 75 73     94%   77 30.05 30.03      
Jul 06 22:53 Calm 10 Clear CLR 77 74     90%   79 30.06 30.03      
Jul 06 21:53 Calm 10 Clear CLR 78 74     87%   80 30.04 30.01      
Jul 06 20:53 Calm 10 Mostly Clear FEW060 81 73     77%   86 30.02 29.99      
Jul 06 19:53 NNW 6 10 Clear CLR 88 71     57%   94 30.01 29.98      
Jul 06 18:53 NNW 6 10 Partly Cloudy SCT050 89 70     53%   94 30 29.98      
Jul 06 17:53 W 11 10 Partly Cloudy SCT050 90 70     52%   95 30 29.97      
Jul 06 16:53 W 11 10 Mostly Clear FEW050 90 70     52%   95 30 29.97      
Jul 06 15:53 W 13 10 Clear CLR 90 70     52%   95 30.01 29.98      
Jul 06 14:53 NW 8 10 Mostly Clear FEW048 89 69     52%   94 30.03 30      
Jul 06 13:53 W 11 10 Clear   89 70     53%   94 30.05 30.03      
Jul 06 10:53 WNW 9 10 Clear   85 72     65%   91 30.08 30.06      
Jul 05 17:53 SSW 7 10 Clear   85 73     68%   92 29.98 29.95      
Jul 05 16:53 W 8 10 Clear   84 73     70%   90 29.98 29.96      
Jul 05 15:53 Calm 10 Clear   82 73     74%   87 30 29.97 0 0  
Jul 05 14:53 S 5 10 Clear   82 72     72%   87 30.01 29.98      
Jul 05 13:53 7 10 Clear   80 72     76%   84 30.01 29.99      
Jul 05 12:53 Calm 10 Clear CLR 78 72     82%   79 30 29.98     0
Jul 05 11:53 SSW 5 10 Clear   73 71     94%   74 30.03 30.01 0    
Jul 05 10:53 SSW 8 10 Clear   74 70     87%   75 30.05 30.03      
Jul 05 09:53 SSW 5 10 Clear   74 71     91%   75 30.06 30.03      
Jul 05 08:53 SSW 3 10 Clear   74 71     91%   75 30.04 30.02      
Jul 05 07:53 3 10 Clear   74 72     94%   75 30.02 29.99      
Jul 05 06:53 SSE 3 10 Clear   74 72     94%   75 30 29.98     0
Jul 05 06:32 Calm 9 Partly Cloudy SCT002 73 73     100%   75 30        
Jul 05 06:23 Calm 3 Fog/Mist   73 73     100%   75 29.99        
Jul 05 05:53 3 1.75 Fog/Mist   73 73     100%   75 29.98 29.96      
Jul 05 05:35 Calm 2 Fog/Mist   73 73     100%   75 29.98        
Jul 05 04:53 ESE 3 5 Fog/Mist   73 73     100%   75 29.96 29.94      
Jul 05 03:53 Calm 7 Clear   73 73     100%   75 29.95 29.93 0 0  
Jul 05 02:53 ESE 3 10 Clear   74 73     97%   76 29.95 29.93 0    
Jul 05 01:53 ESE 5 10 Clear   74 72     94%   75 29.97 29.95      
Jul 05 01:46 ESE 3 10 Clear   74 73     97%   76 29.98        
Jul 05 01:31 5 10 Clear   74 72     94%   75 29.98        
Jul 05 00:53 Calm 10 Clear   74 72     94%   75 29.99 29.96 0   0
Jul 04 23:53 Calm 10 Clear   75 72     90%   76 29.99 29.96      
Jul 04 22:53 ESE 7 10 Clear   76 72     88%   77 29.98 29.96 0    
Jul 04 21:53 E 3 10 Clear   78 75     90%   80 29.96 29.94      
Jul 04 20:53 ESE 3 10 Clear   77 74     90%   79 29.94 29.92      
Jul 04 19:53 NNW 3 10 Clear   83 72     70%   88 29.93 29.9      
Jul 04 18:53 Calm 10 Clear   84 73     70%   90 29.92 29.89      
Jul 04 17:53 Calm 10 Clear   81 72     74%   85 29.92 29.9      
Jul 04 16:53 6 10 Clear   86 71     61%   92 29.93 29.9      
Jul 04 15:53 3 10 Clear   83 73     72%   89 29.95 29.92      
Jul 04 14:53 SW 6 10 Clear   86 71     61%   92 29.94 29.91      
Jul 04 13:53 SSW 7 10 Clear   84 74     72%   91 29.95 29.92      
Jul 04 12:53 S 5 10 Clear   83 76     79%   91 29.96 29.93     0
Jul 04 11:53 E 3 10 Clear   81 76     85%   87 30 29.97      
Jul 04 10:53 E 8 10 Clear   82 76     82%   89 29.99 29.96      
Jul 04 09:53 E 7 10 Clear   78 75     90%   80 29.98 29.96   0  
Jul 04 08:53 Calm 10 Clear   76 74     94%   78 29.98 29.96      
Jul 04 07:53 Calm 10 Clear   75 74     96%   77 29.98 29.96 0    
Jul 04 07:01 Calm 10 Clear   74 74     100%   76 29.98        
Jul 04 06:53 Calm 10 Clear   74 74     100%   76 29.98 29.96 0   0
Jul 04 06:36 Calm 3 Rain and Fog/Mist   74 74     100%   76 29.98   0    
Jul 04 06:33 Calm 2.5 Rain and Fog/Mist   74 74     100%   76 29.98   0    
Jul 04 05:53 SW 5 10 Clear   75 74     96%   77 29.97 29.94      
Jul 04 04:53 Calm 10 Clear   74 74     100%   76 29.95 29.93 0    
Jul 04 04:46 Calm 10 Clear   75 74     96%   77 29.95   0    
Jul 04 04:37 Calm 10 Clear   76 74     94%   78 29.94   0    
Jul 04 04:22 Calm 9 Thunderstorms and Rain   76 74     94%   78 29.95   0    
Jul 04 03:53 Calm 10 Clear   76 75     97%   78 29.96 29.93 0 0  
Jul 04 03:31 Calm 10 Clear   76 75     97%   78 29.96   0    
Notice The following observation data may not be complete
Jul 04 03:16   10 Thunderstorms and Rain            %         0    
Jul 04 00:53 Calm 10 Clear   76 75     97%   78 29.99 29.97      
Jul 03 23:53 Calm 10 Clear   76 75     97%   78 30 29.97      
Jul 03 22:53 Calm 10 Clear   77 75     94%   79 29.99 29.96      
Jul 03 21:53 Calm 10 Clear   76 75     97%   78 29.98 29.95      
Jul 03 20:53 Calm 10 Clear   78 76     93%   80 29.96 29.94      
Jul 03 19:53 Calm 10 Clear   81 76     85%   87 29.96 29.94      
Jul 03 18:53 NNW 6 10 Clear   86 72     63%   92 29.96 29.93      
Jul 03 17:53 5 10 Clear   87 72     61%   94 29.97 29.94      
Jul 03 16:53 6 10 Clear   86 71     61%   92 29.99 29.96      
Jul 03 15:53   10 Clear CLR 86 70     59%   91 29.99 29.97      
Jul 03 14:53 W 9 10 Partly Cloudy SCT031 84 71     65%   89 30.01 29.98      
Jul 03 13:53 6 10 Mostly Cloudy SCT023 BKN038 82 72     72%   87 30.02 29.99      
Jul 03 12:53 W 5 10 Cloudy FEW023 OVC038 78 72     82%   79 30.04 30.02     0
Jul 03 12:44 W 5 10 Cloudy FEW021 OVC039 78 72     82%   79 30.04        
Jul 03 11:53 WSW 6 10 Cloudy OVC024 76 72     88%   77 30.05 30.03      
Jul 03 10:53 SSW 3 10 Cloudy FEW008 OVC027 74 72     94%   75 30.05 30.03      
Jul 03 10:42 SSW 5 10 Cloudy FEW008 OVC029 73 71     94%   74 30.05        
Jul 03 09:53 SSW 3 10 Cloudy SCT005 OVC031 72 71     97%   73 30.05 30.03   0  
Jul 03 09:21 WSW 3 10 Cloudy FEW006 OVC031 72 71     97%   73 30.05        
Jul 03 08:53 Calm 10 Cloudy OVC034 72 71     97%   73 30.04 30.02      
Jul 03 07:53 Calm 10 Cloudy FEW005 OVC040 72 70     93%   73 30.03 30 0    
Jul 03 07:08 Calm 10 Cloudy FEW005 BKN044 OVC095 71 70     96%   72 30.01   0    
Jul 03 07:00 Calm 10 Cloudy SCT005 BKN020 OVC048 71 70     96%   72 30.01   0    
Jul 03 06:53 Calm 10 Cloudy BKN005 BKN020 OVC050 71 70     96%   72 30.02 29.99 0   1
Jul 03 06:48 Calm 10 Cloudy BKN005 BKN020 OVC050 72 70     94%   73 30.01   0    
Jul 03 06:21 S 3 10 Mostly Cloudy FEW007 BKN018 BKN085 70 70     100%     30   0    
Jul 03 05:53 Calm 10 Cloudy SCT070 OVC100 70 70     100%     29.99 29.96 0    
Jul 03 05:16 Calm 5 Rain and Fog/Mist FEW023 BKN090 OVC110 70 70     100%     29.99   0    
Jul 03 04:58 W 5 2.5 Heavy Rain and Fog/Mist FEW021 SCT028 OVC033 70 70     100%     29.99   0    
Jul 03 04:53 WSW 3 3 Heavy Rain and Fog/Mist FEW005 SCT022 OVC028 70 70     100%     29.99 29.96 0    
Jul 03 04:44 WSW 5 4 Rain and Fog/Mist FEW006 SCT011 OVC028 70 70     100%     29.99   0    
Jul 03 04:26 SW 5 6 Rain and Fog/Mist SCT006 BKN011 OVC021 70 70     100%     29.98   0    
Jul 03 04:15 WSW 6 6 Rain and Fog/Mist FEW006 SCT013 OVC021 70 70     100%     29.98   0    
Jul 03 04:06 SW 3 4 Rain and Fog/Mist OVC021 70 70     100%     29.98   0    
Jul 03 03:53 Calm 3 Heavy Rain and Fog/Mist BKN023 OVC043 70 70     100%     29.97 29.95 0 1  
Jul 03 03:44 S 3 4 Rain and Fog/Mist FEW004 BKN021 OVC044 70 70     100%     29.98   0    
Jul 03 03:27 SW 5 3 Rain and Fog/Mist FEW003 BKN041 OVC055 70 70     100%     29.98   0    
Jul 03 03:10 ESE 6 3 Heavy Rain and Fog/Mist BKN050 BKN065 OVC080 71 71     100%   73 29.98   0    
Jul 03 03:00 SSW 3 1.75 Heavy Rain and Fog/Mist BKN045 BKN070 OVC080 71 71     100%   73 29.98   0    
Jul 03 02:53 Calm 4 Rain and Fog/Mist SCT060 OVC085 71 71     100%   73 29.99 29.96 0    
Jul 03 02:32 Calm 6 Rain and Fog/Mist SCT060 SCT075 BKN090 71 71     100%   73 29.99   0    
Jul 03 01:53 Calm 10 Cloudy FEW008 BKN075 OVC110 71 70     96%   72 30.01 29.98 1    
Jul 03 01:38 NE 6 5 Heavy Rain and Fog/Mist BKN085 OVC110 71 71     100%   73 30.02   1    
Jul 03 01:11 NNW 6 4 Rain and Fog/Mist   71 70     96%   72 30.03   0    
Jul 03 01:07 NNW 6 2 Thunderstorms and Heavy Rain and Fog/Mist   71 70     96%   72 30.04   0    
Jul 03 00:53 W 9 0.75 Thunderstorms and Heavy Rain and Fog/Mist   70 70     100%     30.05 30.03 0   0
Jul 03 00:46   0.75 Thunderstorms and Heavy Rain and Fog/Mist   70 69     97%     30.03   0    
Jul 03 00:42   1.5 Heavy Rain and Fog/Mist   71 69     93%   72 30.03   0    
Jul 03 00:20 NW 6 10 Clear   79 76     90%   83 30.01        
Jul 02 23:53 N 5 10 Clear   80 75     85%   85 30.02 29.99      
Jul 02 22:53 Calm 10 Clear   78 75     90%   80 30.02 30      
Jul 02 21:53 Calm 10 Clear   79 74     85%   83 30.01 29.98      
Jul 02 20:53 S 3 10 Clear   82 74     77%   88 30.01 29.99      
Jul 02 19:53 Calm 10 Clear   83 78     85%   93 30.01 29.99      
Jul 02 18:53 3 10 Clear   85 77     77%   95 30 29.97     0
Jul 02 17:53 E 3 10 Clear   87 76     70%   98 30 29.97      
Jul 02 16:53 Calm 10 Clear   87 77     72%   99 30.01 29.99      
Jul 02 15:53 S 6 10 Clear   87 74     65%   95 30.05 30.03 0 0  
Jul 02 15:19 Calm 10 Clear   86 76     72%   96 30.07   0    
Jul 02 15:04 SSW 3 10 Light Rain   86 75     70%   95 30.07   0    
Jul 02 14:53 Calm 10 Thunderstorms   86 74     67%   94 30.07 30.04      
Jul 02 14:49 SSE 5 10 Thunderstorms   86 72     62%   92 30.07        
Jul 02 13:53 Calm 10 Clear   87 72     61%   94 30.09 30.06      
Jul 02 12:53 SW 3 10 Clear   86 74     67%   94 30.11 30.08      
Jul 02 11:53 5 10 Partly Cloudy SCT022 85 74     70%   92 30.12 30.1      
Jul 02 11:51 5 10 Partly Cloudy SCT022 84 73     70%   91 30.12        
Jul 02 11:09 5 10 Mostly Cloudy BKN021 83 73     72%   89 30.13        
Jul 02 10:53 S 5 10 Partly Cloudy SCT017 83 74     74%   89 30.13 30.1      
Jul 02 09:53 5 10 Mostly Clear FEW011 80 74     82%   85 30.13 30.1      
Jul 02 09:39 3 10 Partly Cloudy SCT009 79 73     82%   82 30.13        
Jul 02 09:21 3 10 Mostly Cloudy BKN009 78 73     85%   80 30.13        
Jul 02 08:53 Calm 10 Mostly Clear FEW006 77 73     88%   79 30.13 30.11      
Jul 02 08:27 Calm 10 Partly Cloudy SCT003 74 72     94%   75 30.13        
Jul 02 07:53 Calm 5 Fog/Mist OVC002 73 72     96%   75 30.12 30.1      
Jul 02 07:44 Calm 1 Fog/Mist BKN002 72 72     100%   74 30.12        
Jul 02 07:36 Calm 2.5 Fog/Mist BKN003 72 71     97%   73 30.13        
Jul 02 07:00 Calm 10 Partly Cloudy SCT007 71 70     96%   72 30.11        
Jul 02 06:53 Calm 9 Clear CLR 70 69     97%     30.11 30.08      
Jul 02 05:53 Calm 10 Clear CLR 69 68     96%     30.07 30.05      
Jul 02 04:53 Calm 10 Clear CLR 69 69     100%     30.06 30.03      
Jul 02 03:53 Calm 10 Clear CLR 71 69     93%   72 30.05 30.03      
Jul 02 02:53 Calm 10 Clear CLR 71 70     96%   72 30.04 30.02      
Jul 02 01:53 Calm 10 Clear CLR 71 70     96%   72 30.06 30.03      
Jul 02 00:53 Calm 10 Clear CLR 73 71     94%   74 30.06 30.03      
Jul 01 23:53 Calm 10 Clear CLR 74 70     87%   75 30.06 30.03      
Jul 01 22:53 Calm 10 Partly Cloudy SCT046 78 70     76%   79 30.06 30.03      
Jul 01 21:53 NE 3 10 Clear CLR 77 75     94%   79 30.04 30.02      
Jul 01 20:53 Calm 10 Clear   79 76     90%   83 30.02 30      
Jul 01 19:53 Calm 10 Clear   82 78     88%   91 30.02 30      
Jul 01 18:53 Calm 10 Clear   86 75     70%   95 30 29.97      
Jul 01 17:53 W 5 10 Clear   87 71     59%   93 30 29.98      
Jul 01 16:53 WNW 7 10 Clear   89 69     52%   94 30.01 29.98      
Jul 01 15:53 3 10 Clear   88 72     59%   95 30.02 29.99      
Jul 01 14:53 NNW 6 10 Clear   87 72     61%   94 30.05 30.02      
Jul 01 13:53 W 7 10 Mostly Clear FEW031 86 72     63%   92 30.05 30.03      
Jul 01 12:53 5 10 Clear CLR 84 72     67%   90 30.07 30.04      
Jul 01 11:53 SSW 8 10 Mostly Clear FEW026 82 71     69%   86 30.09 30.06      
Jul 01 10:53 SSW 5 10 Mostly Clear FEW015 79 72     79%   82 30.09 30.06      
Jul 01 09:53 7 10 Mostly Clear FEW009 75 70     84%   76 30.08 30.06      
Jul 01 07:53 SSW 3 10 Clear CLR 71 70     96%   72 30.03 30.01      
Jul 01 06:53 Calm 10 Mostly Cloudy FEW075 SCT100 BKN110 69 69     100%     30.01 29.99     0
Jul 01 05:53 SE 3 10 Mostly Clear FEW060 FEW100 FEW110 69 68     96%     30 29.98      
Jul 01 04:53 Calm 10 Cloudy BKN060 BKN075 OVC090 69 69     100%     30.04 30.01 0    
Jul 01 04:10 S 5 10 Mostly Cloudy FEW009 BKN075 BKN100 69 69     100%     30.03        
Jul 01 03:53 Calm 10 Partly Cloudy FEW010 SCT100 69 68     96%     30 29.98   0  
Jul 01 03:44 NW 3 10 Partly Cloudy SCT010 69 68     96%     30        
Jul 01 03:29 Calm 10 Mostly Cloudy BKN010 69 68     96%     30.01        
Jul 01 03:05 W 6 10 Cloudy OVC007 69 68     96%     29.99        
Jul 01 02:53 N 6 10 Cloudy OVC006 69 68     96%     29.99 29.96 0    
Jul 01 02:02 Calm 10 Mostly Cloudy BKN006 68 67     96%     29.96   0    
Jul 01 01:53 3 10 Partly Cloudy SCT004 68 67     96%     29.95 29.93 0    
Jul 01 00:53 ENE 9 10 Light Rain FEW110 68 67     96%     29.97   0   1
Jul 01 00:24 E 5 9 Light Rain FEW015 BKN110 67 67     100%     30.07   0    
Jun 30 23:53 ESE 3 6 Thunderstorms and Rain and Fog/Mist SCT049 BKN070 OVC090 67 67     100%     30.1 30.09 1    
Jun 30 23:40 Calm 3 Thunderstorms and Heavy Rain and Fog/Mist BKN037 BKN070 OVC085 67 67     100%     30.12   1    
Jun 30 23:33 6 1 Thunderstorms and Heavy Rain and Fog/Mist OVC035 67 67     100%     30.12   1    
Jun 30 23:20 SW 9 0.75 Thunderstorms and Heavy Rain and Fog/Mist BKN029 BKN047 OVC070 68 66     93%     30.11   0    
Jun 30 23:04   1.75 Thunderstorms and Heavy Rain and Fog/Mist SCT022 BKN045 OVC075 73 69     87%   74 30.09   0    
Jun 30 22:53 NW 13 10 Thunderstorms FEW020 BKN050 OVC065 78 74     87%   80 30.06 30.03      
Jun 30 22:14 Calm 10 Cloudy BKN050 OVC110 76 74     94%   78 29.98        
Jun 30 21:53 Calm 10 Mostly Cloudy FEW050 BKN110 77 74     90%   79 29.97 29.95      
Jun 30 20:53 Calm 10 Mostly Cloudy BKN120 76 74     94%   78 29.93 29.91      
Jun 30 19:53 NNE 3 10 Clear CLR 80 73     79%   84 29.93 29.91      
Jun 30 18:53 N 7 10 Clear CLR 83 73     72%   89 29.9 29.88     0
Jun 30 17:53 N 7 10 Clear CLR 83 73     72%   89 29.9 29.88      
Jun 30 16:53 N 11 10 Clear CLR 83 74     74%   89 29.89 29.87      
Jun 30 15:53 SSW 11 10 Clear CLR 81 72     74%   85 29.87 29.85   0  
Jun 30 15:17 S 11 10 Partly Cloudy SCT120 80 72     76%   84 29.9        
Jun 30 15:02 6 10 Clear CLR 78 71     79%   79          
Jun 30 14:53 SSW 9 10 Clear CLR 80 73     79%   84 29.9 29.88      
Jun 30 13:53 ESE 5 10 Clear CLR 75 71     88%   76 29.92 29.89 0    
Jun 30 13:23 7 10 Mostly Cloudy FEW006 BKN100 BKN120 71 70     96%   72 29.93   0    
Jun 30 12:53 S 9 3 Rain and Fog/Mist BKN100 BKN120 70 70     100%     29.99 29.97 0   0
Jun 30 11:53 Calm 10 Light Rain FEW025 SCT080 BKN110 71 68     90%   72 30.04 30.01 0    
Jun 30 10:53 Calm 4 Rain and Fog/Mist FEW080 SCT095 OVC110 69 68     96%     30.05 30.03 0    
Jun 30 10:41 E 5 6 Rain and Fog/Mist BKN080 OVC110 69 68     96%     30.04   0    
Jun 30 10:34 ENE 5 9 Light Rain BKN075 OVC110 70 68     93%     30.05   0    
Jun 30 10:19 NNW 3 10 Thunderstorms and Rain OVC070 70 68     93%     30.07   0    
Jun 30 10:01 NW 7 10 Cloudy OVC060 70 68     93%     30.07        
Jun 30 09:53 WNW 5 10 Cloudy OVC060 70 67     90%     30.06 30.04 0 0  
Jun 30 09:11 N 6 3 Rain and Fog/Mist SCT035 BKN045 OVC080 69 67     93%     30.02   0    
Jun 30 09:07   1.75 Heavy Rain and Fog/Mist SCT033 BKN043 OVC065 69 67     93%     30.01   0    
Jun 30 08:53   1.25 Heavy Rain and Fog/Mist FEW014 BKN025 OVC040 69 67     93%     30.01 29.99 0    
Jun 30 08:50   2.5 Heavy Rain FEW016 BKN025 OVC044 72 66     83%   72 30.01   0    
Jun 30 08:41 N 15 10 Cloudy FEW012 BKN032 OVC090 75 65     71%   76 30.01        
Jun 30 08:34   10 Cloudy FEW011 BKN018 OVC085 77 69     77%   78 29.99        
Jun 30 07:53 Calm 10 Mostly Cloudy BKN090 78 76     93%   80 29.93 29.9      
Jun 30 07:05 Calm 10 Mostly Cloudy SCT018 BKN032 BKN065 77 75     94%   79 29.93        
Jun 30 06:53 Calm 10 Cloudy BKN019 BKN032 OVC065 77 75     94%   79 29.93 29.91      
Jun 30 05:53 Calm 10 Cloudy FEW020 SCT027 OVC070 76 74     94%   78 29.91 29.89      
Jun 30 05:50 Calm 10 Cloudy FEW022 SCT027 OVC065 75 73     94%   77 29.91        
Jun 30 04:53 ESE 3 10 Mostly Cloudy BKN022 BKN050 76 74     94%   78 29.89 29.86      
Jun 30 03:53 Calm 10 Mostly Cloudy BKN049 75 73     94%   77 29.88 29.85      
Jun 30 02:53 Calm 10 Cloudy OVC043 75 73     94%   77 29.87 29.84      
Jun 30 01:53 Calm 10 Mostly Cloudy FEW031 FEW040 BKN048 75 72     90%   76 29.85 29.83      
Jun 30 00:53 3 10 Mostly Cloudy SCT039 BKN047 74 72     94%   75 29.88 29.86      
Jun 29 23:53 Calm 10 Clear CLR 74 72     94%   75 29.89 29.87      
Jun 29 22:53 Calm 10 Clear CLR 74 72     94%   75 29.89 29.87      
Jun 29 21:53 ESE 3 10 Clear CLR 75 72     90%   76 29.87 29.84      
Jun 29 20:53 SE 3 10 Clear CLR 78 72     82%   79 29.85 29.83      
Jun 29 19:53 SSE 3 10 Clear CLR 82 72     72%   87 29.85 29.82      
Jun 29 18:53 S 8 10 Clear CLR 84 72     67%   90 29.84 29.81      
Jun 29 17:53 7 10 Mostly Clear FEW030 FEW036 84 72     67%   90 29.86 29.84      
Jun 29 16:53 5 10 Cloudy FEW031 BKN048 OVC060 83 73     72%   89 29.89 29.86      
Jun 29 15:53 3 10 Cloudy BKN032 BKN045 OVC060 84 71     65%   89 29.9 29.88      
Jun 29 14:53 ESE 6 10 Cloudy FEW032 OVC055 83 71     67%   88 29.91 29.88      
Jun 29 13:53 3 10 Cloudy BKN039 OVC049 82 71     69%   86 29.93 29.9      
Jun 29 12:53 5 10 Cloudy OVC035 80 70     71%   83 29.94 29.91      
Jun 29 12:25 S 9 10 Cloudy SCT023 OVC031 79 70     74%   82 29.94        
Jun 29 11:53 SSE 7 10 Cloudy FEW021 OVC028 79 70     74%   82 29.95 29.93      
Jun 29 11:29 SSE 6 10 Cloudy FEW020 OVC030 79 70     74%   82 29.95        
Jun 29 10:53 6 10 Cloudy FEW019 OVC027 78 70     76%   79 29.95 29.93      
Jun 29 09:53 7 10 Cloudy OVC025 76 69     79%   77 29.95 29.93      
Jun 29 08:53 5 10 Clear   76 70     82%   77 29.94 29.91      
Jun 29 08:24 3 10 Mostly Cloudy BKN019 76 70     82%   77 29.94        
Jun 29 07:53 SSE 3 10 Clear CLR 76 70     82%   77 29.93 29.9      
Jun 29 06:53 Calm 10 Clear CLR 72 69     91%   73 29.92 29.9      
Jun 29 03:53 Calm 10 Clear CLR 71 68     90%   72 29.9 29.87      
Jun 29 02:53 Calm 10 Clear CLR 73 68     84%   74 29.91 29.88      
Jun 29 01:53 Calm 10 Clear CLR 73 68     84%   74 29.91 29.88      
Jun 29 00:53 Calm 10 Clear CLR 74 68     82%   75 29.92 29.9      
Jun 28 23:53 Calm 10 Clear CLR 74 69     85%   75 29.92 29.9      
Jun 28 22:53 Calm 10 Clear   74 69     85%   75 29.92 29.9      
Jun 28 21:53 Calm 10 Clear   75 69     82%   76 29.91 29.88      
Jun 28 20:53 Calm 10 Clear   79 68     69%   80 29.9 29.87      
Jun 28 19:53 5 10 Clear   83 68     61%   86 29.89 29.86      
Jun 28 18:53 5 10 Clear   85 67     55%   88 29.89 29.87      
Jun 28 17:53 SE 6 10 Clear   86 65     50%   88 29.9 29.88      
Jun 28 16:53 5 10 Clear   87 65     48%   89 29.92 29.89      
Jun 28 15:53 S 6 10 Partly Cloudy SCT060 86 66     51%   88 29.93 29.9      
Jun 28 14:53 ESE 6 10 Partly Cloudy SCT055 85 65     51%   87 29.95 29.92      
Jun 28 13:53 3 10 Partly Cloudy FEW049 SCT055 85 65     51%   87 29.97 29.95      
Jun 28 12:53 5 10 Mostly Cloudy BKN044 BKN050 83 66     57%   85 29.99 29.97      
Jun 28 11:53 Calm 10 Clear CLR 84 66     55%   86 30.01 29.98      
Jun 28 10:53 SW 6 10 Clear CLR 82 67     60%   85 30.01 29.99      
Jun 28 09:53 6 10 Clear CLR 79 66     65%   80 30.02 29.99      
Jun 28 08:53 S 6 10 Clear CLR 76 65     69%   76 30.04 30.02      
Jun 28 07:53 Calm 10 Clear CLR 73 65     76%   74 30.03 30.01      
Jun 28 06:53 Calm 10 Clear CLR 67 65     93%     30.01 29.99      
Jun 28 05:53 Calm 10 Clear CLR 65 64     97%     30 29.98      
Jun 28 04:53 Calm 10 Clear CLR 66 64     93%     30 29.98      
Jun 28 03:53 Calm 10 Clear CLR 69 65     87%     29.99 29.97      
Jun 28 02:53 Calm 10 Clear CLR 70 65     84%     29.99 29.97      
Jun 28 01:53 Calm 10 Clear CLR 70 65     84%     30.01 29.98      
Jun 28 00:53 Calm 10 Clear CLR 69 65     87%     30.01 29.99      
Jun 27 23:53 Calm 10 Clear CLR 71 65     81%   72 30.01 29.99      
Jun 27 22:53 Calm 10 Clear CLR 72 65     79%   73 30.02 30      
Jun 27 21:53 Calm 10 Clear CLR 72 66     82%   73 30.01 29.99      
Jun 27 20:53 ESE 3 10 Clear CLR 75 65     71%   76 30 29.98      
Jun 27 19:53 ESE 5 10 Clear CLR 79 64     60%   79 29.99 29.97      
Jun 27 18:53 3 10 Clear CLR 82 64     55%   84 29.99 29.97      
Jun 27 17:53 3 10 Clear CLR 82 64     55%   84 30.01 29.98      
Jun 27 16:53 SE 6 10 Clear CLR 83 63     51%   84 30.02 30      
Jun 27 15:53 ENE 7 10 Clear CLR 84 63     49%   85 30.03 30.01      
Jun 27 14:53 6 10 Clear CLR 83 62     49%   84 30.05 30.02      
Jun 27 13:53 ENE 6 10 Clear CLR 83 64     53%   84 30.06 30.04      
Jun 27 12:53 6 10 Clear CLR 80 64     58%   82 30.08 30.06      
Jun 27 11:53 E 5 10 Clear CLR 79 64     60%   79 30.09 30.06      
Jun 27 09:53 5 10 Clear CLR 74 63     69%   74 30.11 30.09      
Jun 27 08:53 5 10 Clear CLR 71 64     79%   72 30.12 30.1      
Jun 27 07:53 5 10 Partly Cloudy SCT120 68 64     87%     30.11 30.09      
Jun 27 06:53 Calm 10 Clear CLR 66 64     93%     30.1 30.08      
Jun 27 05:53 Calm 10 Clear CLR 64 63     96%     30.1 30.07      
Jun 27 04:53 Calm 10 Clear CLR 64 63     96%     30.09 30.07      
Jun 27 03:53 Calm 10 Clear CLR 62 61     96%     30.08 30.06      
Jun 27 01:53 NE 3 10 Clear CLR 63 61     93%     30.07 30.05      
Jun 27 00:53 Calm 10 Clear CLR 64 60     87%     30.08 30.06      
Jun 26 23:53 Calm 10 Clear CLR 65 61     87%     30.08 30.06      
Jun 26 22:53 Calm 10 Partly Cloudy SCT110 68 63     84%     30.07 30.05      
Jun 26 20:53 Calm 10 Partly Cloudy SCT110 71 64     79%   72 30.05 30.03      
Jun 26 19:53 Calm 10 Clear CLR 78 64     62%   79 30.05 30.03      
Jun 26 18:53 Calm 10 Clear CLR 80 64     58%   82 30.05 30.03      
Jun 26 17:53 5 10 Partly Cloudy SCT060 84 61     46%   84 30.05 30.03      
Jun 26 16:53 Calm 10 Clear CLR 84 59     43%   84 30.07 30.04      
Jun 26 15:53 S 6 10 Mostly Clear FEW050 83 61     48%   83 30.09 30.07      
Jun 26 14:53 3 10 Mostly Clear FEW050 83 62     49%   84 30.12 30.1      
Jun 26 13:53 3 10 Clear CLR 82 60     47%   82 30.15 30.12      
Jun 26 12:53 6 10 Clear CLR 81 60     49%   82 30.17 30.14      
Jun 26 11:53 7 10 Clear CLR 80 59     49%   81 30.19 30.17      
Jun 26 10:53 3 10 Clear CLR 81 59     47%   81 30.2 30.18      
Jun 26 08:53 Calm 10 Clear CLR 72 65     79%   73 30.21 30.19      
Jun 26 07:53 NW 3 10 Cloudy OVC120 69 64     84%     30.2 30.18      
Jun 26 06:53 Calm 10 Cloudy OVC120 67 65     93%     30.19 30.17     0
Jun 26 05:53 Calm 10 Cloudy OVC110 66 65     96%     30.19 30.17      
Jun 26 04:53 Calm 10 Cloudy OVC120 66 64     93%     30.19 30.17 0    
Jun 26 03:53 NW 5 10 Cloudy OVC120 69 62     78%     30.21 30.19      
Jun 26 02:53 NNW 5 10 Cloudy OVC120 69 64     84%     30.2 30.18      
Jun 26 01:53 Calm 10 Mostly Clear FEW085 FEW110 68 65     90%     30.2 30.18      
Jun 26 00:53 Calm 10 Clear CLR 68 65     90%     30.19 30.17      
Jun 25 23:53 Calm 10 Clear CLR 67 64     90%     30.19 30.17      
Jun 25 22:53 Calm 10 Clear   68 63     84%     30.18 30.16      
Jun 25 21:53 Calm 10 Clear CLR 68 64     87%     30.18 30.16      
Jun 25 20:53 Calm 10 Clear CLR 70 64     81%     30.17 30.14      
Jun 25 19:53 Calm 10 Clear CLR 76 63     64%   76 30.16 30.14      
Jun 25 18:53 SSE 3 10 Clear CLR 83 54     37%   82 30.17 30.15      
Jun 25 17:53 NE 3 10 Clear CLR 85 50     30%   83 30.17 30.15      
Jun 25 16:53 S 6 10 Clear CLR 84 52     33%   82 30.19 30.17      
Jun 25 14:53 5 10 Clear CLR 84 51     32%   82 30.22 30.19      
Jun 25 13:53 6 10 Clear CLR 83 55     38%   82 30.24 30.21      
Jun 25 12:53 E 5 10 Clear CLR 83 52     34%   82 30.26 30.24      
Jun 25 11:53 S 3 10 Clear CLR 81 55     41%   81 30.26 30.24      
Jun 25 10:53 NNE 6 10 Clear CLR 81        %     30.27 30.24      
Jun 25 09:53 WNW 3 10 Clear CLR 77 59     54%   77 30.26 30.24      
Jun 25 08:53 Calm 10 Clear CLR 73 61     66%   73 30.26 30.24      
Jun 25 07:53 Calm 10 Clear CLR 68 62     81%     30.26 30.24      
Jun 25 06:53 Calm 10 Clear CLR 66 63     90%     30.25 30.23      
Jun 25 05:53 Calm 10 Mostly Cloudy BKN120 63 62     97%     30.23 30.21      
Jun 25 04:53 Calm 10 Clear CLR 63 62     97%     30.22 30.19      
Jun 25 03:53 Calm 10 Mostly Clear FEW120 65 62     90%     30.21 30.19      
Jun 25 02:53 WNW 3 10 Partly Cloudy SCT120 68 60     76%     30.21 30.19      
Jun 25 01:53 NNW 3 10 Partly Cloudy FEW055 FEW100 SCT120 69 61     75%     30.21 30.19      
Jun 25 00:53 WNW 3 10 Cloudy OVC120 69 62     78%     30.21 30.18      
Jun 24 23:53 Calm 10 Mostly Clear FEW120 69 63     81%     30.2 30.18      
Jun 24 22:53 ENE 5 10 Clear CLR 71 58     63%   71 30.19 30.16      
Jun 24 21:53 Calm 10 Mostly Clear FEW120 70 58     66%     30.18 30.16      
Jun 24 20:53 Calm 10 Clear CLR 70 59     68%     30.16 30.14      
Jun 24 19:53 ENE 5 10 Clear CLR 71 59     66%   71 30.14 30.12      
Jun 24 18:53 NE 8 10 Mostly Clear FEW001 80 54     41%   80 30.12 30.1      
Jun 24 18:33 NE 9 10 Mostly Clear FEW001 81 55     41%   81 30.12        
Jun 24 17:53 NNE 10 10 Clear CLR 83 53     36%   82 30.1 30.08      
Jun 24 16:53 NNE 7 10 Clear CLR 83 57     41%   82 30.11 30.08      
Jun 24 15:53 NNE 10 10 Clear CLR 83 60     46%   83 30.12 30.1      
Jun 24 14:53 NNE 7 10 Clear CLR 80 61     52%   81 30.13 30.11      
Jun 24 13:53 N 7 10 Clear CLR 80 60     51%   81 30.15 30.13      
Jun 12 05:53 SSE 3 10 Clear CLR 71 69     93%   72 29.98 29.96      
Jun 11 01:53 5 10 Clear   72 64     76%   72 29.96 29.94      
Jun 10 16:53 S 8 10 Cloudy FEW047 OVC060 83 66     57%   85 29.91 29.89      
Jun 09 15:53 SSW 5 10 Clear CLR 80 56     44%   80 29.92 29.9      
Jun 08 07:53 Calm 10 Clear CLR 64 57     78%     30.04 30.02      
Jun 07 10:53 NNE 6 10 Clear CLR 77 56     48%   77 30.02 29.99      
Jun 06 06:42 Calm 1.5 Fog/Mist OVC002 68 67     96%     29.85        
Jun 06 04:53 Calm 9 Clear CLR 67 66     97%     29.83 29.81      
Jun 06 02:53 Calm 6 Fog/Mist CLR 68 67     96%     29.82 29.8      
Jun 06 01:22 WNW 3 1.5 Fog/Mist FEW002 68 67     96%     29.81        
Jun 05 23:18 Calm 2.5 Fog/Mist CLR 69 68     96%     29.82        
Jun 05 19:53 Calm 10 Clear CLR 74 71     91%   75 29.78 29.75      
Jun 05 15:00 ENE 8 1.75 Heavy Rain and Fog/Mist FEW029 BKN080 BKN090 75 71     88%   76 29.77   0